Wind_Gust
28 26 25 25 24 24 24 22 21 20 20 19 18 18 17 16 16 16 15 14 14 14 15 15 13 14 14 12 11 9 11 4 2 2 3 15 11 9 8 8 6 7 5 3 7 7 9 10 13 13 12 11 9 9 7 13 9 12 14 14 10 4 5 7 8 10 8 12 5 5 5 11 12 7 10 10 15 12 11 13 6 11 10 7 4 5 5 5
28 26 26 25 25 25 24 24 21 21 21 21 18 17 16 16 16 16 15 14 13 14 14 13 13 13 12 11 10 10 8 2 2 2 17 7 6 8 8 9 7 7 5 5 5 4 5 11 8 12 11 12 8 11 6 9 11 15 11 13 9 6 5 6 7 12 14 8 9 4 4 6 11 5 6 15 8 10 16 9 6 11 10 9 9 10 11 8
25 25 26 25 25 25 25 23 23 20 21 21 19 16 16 16 17 16 15 14 13 13 13 13 12 12 12 10 9 7 6 3 1 2 7 7 10 8 8 8 7 6 5 4 5 4 3 3 8 9 10 11 14 8 9 11 10 8 15 14 6 4 5 12 16 12 9 16 13 11 9 9 4 6 6 11 12 10 13 11 8 9 7 8 6 9 10 14
25 25 25 25 24 26 25 24 22 21 19 22 19 17 16 16 17 16 14 14 13 12 11 12 11 10 10 10 7 4 3 3 6 7 7 8 11 11 9 8 9 7 5 4 5 4 6 10 11 10 12 13 8 11 18 13 12 6 15 8 6 5 10 10 15 12 15 15 19 14 11 12 7 8 8 10 17 11 4 3 5 8 7 5 6 8 10 14
24 24 26 26 25 25 25 23 22 17 22 21 20 16 17 15 16 15 14 14 13 11 10 10 11 10 9 9 10 5 6 14 7 4 10 11 13 13 11 10 8 4 4 5 7 6 8 8 7 10 12 10 9 8 11 12 11 12 6 2 3 8 16 9 14 14 14 12 13 10 13 11 9 10 8 6 15 10 5 4 6 6 5 6 9 8 10 12
23 23 26 27 27 27 26 23 21 20 25 23 21 19 17 15 16 15 13 15 14 11 10 9 8 9 7 7 6 3 5 16 7 7 9 14 14 13 12 11 7 6 4 4 4 6 10 9 10 10 11 10 9 14 6 5 4 18 7 5 6 6 14 7 16 14 14 14 11 10 8 8 8 9 6 10 10 5 6 5 5 5 5 6 7 7 10 12
23 23 24 27 28 27 27 24 21 25 26 25 22 20 18 16 15 15 14 15 14 11 8 7 7 8 6 5 4 7 8 6 4 13 15 14 14 13 11 8 7 6 5 5 5 10 9 12 12 7 10 10 6 14 8 8 9 16 12 5 8 8 11 9 14 12 12 15 11 12 11 13 12 13 5 12 6 8 8 7 5 6 7 7 10 8 11 10
24 24 26 28 29 28 28 27 27 29 30 26 21 21 19 17 14 15 14 15 13 11 8 6 6 6 5 4 4 9 6 6 15 6 14 15 12 10 10 6 5 5 7 7 12 12 9 11 15 8 15 10 5 9 3 15 11 12 13 6 9 13 15 17 15 15 16 14 12 14 14 6 8 10 5 7 6 4 7 5 7 8 9 8 10 9 9 10
25 27 27 28 29 29 28 28 29 32 31 25 22 21 19 17 15 13 14 14 12 10 9 6 5 7 6 4 6 6 6 9 9 10 12 11 9 10 8 5 5 5 5 9 7 14 11 5 5 6 9 9 4 13 4 12 14 7 9 10 14 14 14 16 16 13 14 13 15 20 14 10 11 9 10 3 2 5 7 8 7 8 8 7 6 6 8 8
27 29 28 29 30 29 29 29 31 31 28 25 25 22 20 18 15 12 12 13 11 10 7 6 5 7 3 5 8 9 10 7 5 12 12 12 9 9 9 6 6 5 6 4 15 13 8 11 15 11 18 11 5 7 3 11 12 10 14 16 17 13 14 10 15 12 10 11 12 21 14 15 7 9 5 4 2 5 9 8 5 9 7 5 5 5 4 8
29 29 28 30 29 29 30 29 30 30 27 28 25 23 20 18 16 13 10 11 9 8 6 5 5 4 4 5 9 5 10 7 6 11 12 11 11 9 8 8 9 9 10 14 11 9 15 18 17 12 12 12 9 8 10 11 12 14 18 16 14 14 14 13 14 14 11 11 9 17 12 4 6 7 9 5 2 6 10 5 4 6 5 5 4 5 3 5
28 29 30 30 29 31 31 31 31 30 29 28 26 24 21 18 16 14 9 8 7 7 7 8 7 3 5 10 7 11 8 9 9 11 12 10 8 10 8 7 8 7 13 12 8 10 16 16 8 7 15 6 20 9 13 6 12 10 15 16 8 11 16 10 13 6 9 12 8 12 13 10 9 8 5 4 4 7 7 6 2 4 5 5 4 5 5 5
29 29 31 29 30 32 33 33 32 31 30 28 26 25 22 18 17 12 7 6 7 9 8 9 7 4 4 9 13 14 6 5 13 10 7 6 5 4 6 5 10 9 10 17 9 5 9 13 16 21 10 11 10 12 11 9 10 12 9 13 9 8 7 4 6 9 11 16 18 10 9 8 4 3 4 4 7 6 6 4 4 3 3 2 4 5 4 3
30 30 29 30 31 32 34 34 34 33 31 28 27 26 23 20 15 11 6 8 9 8 10 11 4 3 6 9 14 8 6 9 14 11 9 12 8 8 10 11 10 7 7 13 7 6 11 14 18 15 7 10 14 6 14 8 8 14 5 10 9 8 6 7 9 10 11 14 4 5 13 8 6 7 6 5 6 8 5 4 4 4 4 5 6 5 5 3
31 29 29 30 31 32 34 35 35 34 33 31 28 27 25 18 12 8 9 10 7 10 12 7 5 4 10 16 9 12 11 9 11 11 11 14 15 6 5 8 12 9 9 9 11 7 8 10 14 13 10 5 13 11 7 8 7 7 10 4 5 9 4 4 6 12 13 12 4 14 7 10 7 8 8 7 5 6 6 5 5 5 5 5 6 5 4 4
30 30 30 30 31 33 34 35 35 35 34 34 30 31 25 12 8 11 11 7 11 13 9 3 6 8 4 10 5 7 7 7 8 8 10 16 9 10 5 5 5 11 12 7 6 8 8 11 17 10 14 8 15 13 9 10 6 7 10 2 3 6 6 6 10 9 8 13 9 3 9 3 5 10 8 8 7 7 6 6 6 7 6 6 6 5 5 5
30 32 30 30 32 33 34 35 36 36 34 34 32 27 17 11 13 14 15 16 11 7 2 5 3 3 6 10 9 7 10 7 7 7 7 6 16 14 11 8 9 8 8 6 10 10 11 16 8 9 12 12 9 12 15 9 4 3 6 7 6 10 5 6 6 9 7 9 7 5 10 8 6 8 10 9 9 8 7 9 8 9 7 7 6 6 7 6
30 32 32 31 32 34 34 37 36 36 35 34 27 17 21 12 19 18 9 7 7 6 4 5 4 8 17 9 7 8 7 11 10 11 8 6 17 14 7 7 2 7 7 6 8 11 9 7 10 8 6 5 5 8 12 6 12 8 3 7 3 2 7 7 13 8 7 5 6 4 4 7 7 9 11 13 11 9 9 9 11 12 9 8 8 7 7 7
30 31 33 32 33 34 35 36 36 35 32 33 20 16 13 14 7 3 10 7 7 11 8 7 12 7 13 11 12 16 13 11 8 10 7 11 6 7 8 8 10 6 5 11 8 6 9 10 10 11 5 3 7 9 10 9 9 9 10 9 7 10 8 8 12 10 15 6 7 8 10 7 6 10 11 10 11 13 11 7 8 10 11 10 8 8 7 6
31 30 34 33 34 34 36 35 34 34 29 21 23 14 18 25 22 16 20 13 7 7 7 9 7 10 14 20 13 11 7 7 13 7 8 6 14 5 9 6 6 11 8 5 6 5 6 12 9 4 7 11 6 9 8 6 9 9 7 7 9 8 4 5 4 13 14 9 7 9 6 10 11 13 14 14 11 9 9 10 10 9 12 11 8 9 10 7
30 31 33 35 34 34 34 36 34 32 27 10 10 23 16 12 11 19 20 21 11 7 8 13 13 11 19 15 11 9 9 5 5 8 9 6 10 9 6 6 9 8 5 3 5 4 14 11 5 8 5 8 8 8 10 11 7 10 9 6 2 6 8 9 10 12 12 10 2 7 11 10 13 11 12 11 10 12 14 12 12 13 13 12 11 11 10 8
30 33 32 36 35 35 35 35 35 28 19 9 19 20 13 7 5 9 6 18 19 14 10 15 13 14 16 18 15 9 7 7 7 10 7 7 6 7 6 9 3 5 5 4 8 15 11 5 6 7 5 9 9 8 6 9 8 5 9 6 5 7 5 3 5 9 8 10 6 8 11 13 12 13 11 12 16 13 16 18 17 17 14 13 11 11 9 7
30 33 33 34 36 35 37 34 34 25 15 18 17 13 15 10 7 9 8 8 15 15 11 10 8 17 19 19 16 11 10 11 13 10 20 7 3 7 7 4 4 4 4 7 5 3 6 7 10 6 11 12 6 7 10 11 10 10 6 7 6 7 12 6 6 10 5 6 9 10 11 11 8 7 10 13 17 11 15 17 15 17 19 16 17 16 14 11
31 33 34 33 35 36 38 37 27 10 17 12 3 14 6 5 6 11 8 8 10 15 9 11 8 10 12 11 13 12 9 11 7 11 9 14 10 5 7 6 4 4 2 4 9 10 8 6 4 9 13 13 10 5 8 10 7 4 6 5 5 4 9 11 11 7 3 5 8 9 8 12 6 8 12 10 9 9 13 12 9 11 16 15 10 10 13 16
29 32 32 33 35 36 42 29 12 15 12 7 4 11 14 11 6 7 6 12 7 14 9 7 10 9 13 6 2 8 4 6 10 9 17 13 7 5 4 6 7 3 4 5 8 8 4 4 7 8 6 7 10 6 5 13 7 9 8 9 9 7 9 6 10 9 8 8 4 13 9 9 9 13 16 12 7 8 13 15 13 15 12 11 14 14 10 10
29 30 32 30 32 35 37 10 10 22 15 4 7 16 13 15 8 7 15 9 7 13 12 8 6 7 6 6 5 6 7 7 6 9 15 16 14 10 7 4 7 3 6 11 10 10 7 4 3 8 9 7 6 6 6 7 6 6 4 8 8 11 12 12 10 9 4 6 9 7 8 12 10 9 12 11 8 11 7 14 14 15 16 15 16 15 14 13
28 29 29 28 27 30 21 9 10 17 5 9 14 16 16 13 9 6 10 14 10 8 7 7 6 13 10 4 8 7 9 10 11 4 7 6 11 4 9 10 5 5 7 10 13 6 3 3 8 7 9 6 6 4 8 12 11 6 5 10 9 10 12 11 10 8 7 4 5 8 7 6 14 15 11 9 10 10 9 11 13 16 17 16 14 15 13 13
27 28 29 27 26 19 9 11 17 15 10 11 14 15 16 13 8 9 16 10 15 8 5 7 9 7 5 5 8 7 10 4 7 9 6 9 8 6 5 9 10 9 5 10 8 10 5 6 4 5 4 4 5 8 10 9 12 9 5 10 7 9 5 8 10 6 2 9 6 11 3 5 9 13 9 11 8 8 15 15 15 16 17 16 15 16 14 15
28 27 26 24 27 21 7 6 9 13 11 10 15 16 19 8 11 15 12 13 10 13 13 8 11 4 7 5 6 7 4 4 8 7 4 4 6 10 5 7 10 9 4 12 12 6 7 8 10 10 10 6 8 4 9 11 7 4 11 13 11 11 11 8 7 7 5 10 7 7 5 6 14 12 10 5 8 13 18 18 17 19 19 18 17 14 14 13
25 24 24 23 23 5 10 6 13 14 13 13 15 19 10 8 11 11 9 7 8 7 5 9 8 8 5 6 6 5 5 6 6 7 7 11 7 6 4 7 8 6 4 8 8 13 7 5 10 8 9 9 6 4 6 6 7 12 13 12 9 12 8 6 12 8 9 9 9 8 5 7 8 10 14 16 20 25 18 9 10 12 14 15 16 17 16 16
25 25 24 17 17 13 11 17 12 8 7 13 18 15 8 18 14 12 7 13 5 11 8 5 10 7 7 5 7 5 3 4 5 7 6 4 4 8 5 5 13 14 10 11 7 11 6 5 4 6 6 6 6 13 8 9 6 11 9 8 7 6 12 10 10 10 10 8 10 7 3 4 5 12 11 19 8 8 18 18 18 17 19 19 17 17 16 17
26 27 28 21 15 2 7 15 11 8 14 14 14 11 12 6 13 6 10 9 11 13 6 9 6 9 8 4 6 5 9 4 5 12 12 10 7 7 7 12 9 7 9 3 7 8 2 4 6 10 6 10 5 10 5 10 10 15 13 14 10 8 13 10 16 12 4 5 3 2 3 6 9 18 12 13 19 15 18 22 24 23 20 18 18 18 17 17
27 28 33 19 9 6 15 24 16 16 11 13 10 10 12 13 8 10 7 8 8 7 10 5 9 7 4 3 6 6 4 10 6 9 9 5 9 9 8 10 13 15 9 8 5 8 10 8 8 7 5 4 11 9 4 6 9 11 10 8 9 9 11 7 7 5 9 12 8 3 4 7 11 16 13 15 16 21 21 19 21 24 24 22 21 18 17 17
27 27 26 14 13 21 21 8 15 8 10 10 9 13 16 10 8 10 5 7 8 9 8 9 10 4 5 16 9 7 6 7 8 12 6 8 6 8 11 8 8 4 11 3 10 9 5 11 12 7 8 5 7 12 14 10 7 5 6 10 7 12 8 8 7 7 5 9 10 7 6 10 6 7 7 11 13 16 17 18 19 22 23 21 19 18 16 16
31 25 15 23 9 14 20 16 13 5 3 8 18 13 11 12 7 7 6 7 12 11 10 9 4 5 7 8 6 8 9 10 5 7 8 9 11 10 12 10 7 10 5 12 6 8 8 12 14 9 6 9 9 5 8 11 8 3 5 9 9 6 13 9 8 6 5 6 9 7 8 7 12 8 9 8 8 11 13 13 15 15 16 15 14 16 17 17
21 22 15 17 9 9 9 10 6 7 8 12 13 7 9 14 6 8 7 7 9 12 17 12 10 13 6 8 7 8 8 4 6 9 7 12 8 10 7 8 14 14 14 11 11 5 6 3 4 9 4 11 9 10 7 8 11 7 4 4 7 8 17 12 4 3 4 8 6 6 15 12 17 9 4 9 10 8 12 14 17 17 16 15 16 16 16 17
22 21 21 11 11 10 7 9 11 8 15 14 14 8 13 10 11 8 8 6 9 7 7 12 12 6 8 11 7 11 11 8 7 8 12 5 8 10 7 8 8 9 12 19 6 11 16 10 8 9 7 10 4 10 6 5 14 14 7 11 6 7 10 13 5 8 11 7 11 6 6 15 14 15 10 10 9 9 11 16 18 17 15 17 16 18 19 19
21 16 14 13 15 10 7 9 11 13 10 10 7 9 5 6 7 7 5 11 11 4 7 5 11 9 6 7 12 12 10 9 13 7 6 5 12 7 5 9 6 14 14 5 14 7 13 10 6 7 12 8 7 7 8 4 6 8 10 10 11 7 10 9 11 9 10 11 15 13 4 11 8 14 9 9 11 9 8 11 14 14 15 18 14 14 13 13
8 8 16 9 6 7 8 12 12 10 8 7 7 6 9 12 6 5 9 13 7 7 4 6 6 6 6 4 6 9 7 14 7 3 8 6 10 6 8 8 5 7 7 12 11 8 9 12 11 9 6 6 7 11 10 11 10 6 7 6 4 13 8 6 9 8 12 5 9 13 9 14 12 12 9 10 11 11 11 10 17 20 21 19 17 17 18 18
11 12 9 8 10 12 7 11 10 11 10 5 8 11 7 7 11 11 13 4 10 6 6 4 3 4 6 3 3 8 7 5 9 8 6 8 6 7 5 4 5 7 9 7 7 5 6 7 8 10 7 7 12 10 13 14 9 4 7 6 6 7 6 13 4 3 6 9 7 6 14 15 17 14 9 12 14 15 18 19 18 19 18 17 18 20 19 19
6 5 16 9 13 11 10 13 10 4 5 8 3 7 4 8 9 8 12 15 10 9 9 5 7 4 7 10 10 2 8 6 6 8 5 6 6 16 11 11 8 7 7 12 11 7 10 6 11 7 9 9 13 13 11 13 14 13 16 12 14 8 5 6 11 7 7 7 9 7 14 19 23 7 12 11 14 15 16 19 19 16 16 17 17 17 19 19
4 7 13 7 12 8 12 5 7 4 7 4 9 8 9 8 8 9 12 9 8 10 3 4 2 3 4 5 5 5 7 8 5 7 7 7 6 7 10 8 10 7 15 14 9 6 12 10 16 7 12 15 11 9 8 11 7 7 12 6 10 8 13 12 6 11 5 5 11 7 5 17 15 6 8 11 10 14 15 17 18 16 14 16 18 19 18 21
5 13 15 18 12 5 11 5 5 6 5 9 6 8 9 13 8 12 15 8 7 6 6 5 4 5 5 4 3 4 3 9 3 6 5 6 10 11 17 14 10 11 11 6 8 3 11 12 9 7 12 11 11 8 9 6 8 8 6 7 8 7 12 16 13 12 10 3 3 5 7 21 16 4 6 10 10 7 7 11 18 16 11 14 17 16 17 13
6 9 17 10 8 9 11 10 6 4 10 9 3 8 5 9 10 12 10 5 7 8 4 6 6 3 7 2 3 6 4 10 6 6 7 4 13 11 14 17 11 7 6 11 11 6 14 9 12 6 10 14 16 18 18 17 12 9 10 8 5 6 9 6 10 6 8 10 11 11 11 17 15 7 10 6 8 6 9 10 12 15 9 14 17 17 17 17
10 11 11 18 12 9 10 12 9 5 4 4 6 9 11 8 9 10 9 7 3 5 6 6 6 5 7 3 4 4 4 5 8 5 3 5 13 9 13 15 11 10 9 6 9 8 14 6 11 11 9 7 7 8 13 14 11 15 6 8 5 9 10 7 5 6 6 4 6 6 13 20 20 16 16 9 8 9 8 9 7 11 16 17 16 17 18 20
5 10 12 10 11 7 7 3 7 8 5 4 7 10 4 8 11 8 8 9 8 5 6 5 4 7 4 9 8 7 7 7 7 8 10 12 11 14 9 14 13 9 12 13 9 10 11 6 9 13 15 17 16 13 10 4 7 11 12 11 15 5 9 9 11 10 10 9 10 13 11 11 20 20 17 18 11 14 14 7 9 11 9 13 17 19 21 21
5 7 7 7 14 8 5 6 4 4 7 8 7 5 3 6 7 13 5 7 3 5 4 4 4 6 6 6 5 5 2 7 9 9 12 9 7 9 11 8 11 18 19 9 10 13 9 10 7 10 5 11 11 6 4 6 7 5 6 9 10 6 5 5 6 12 10 16 11 12 8 6 15 16 17 16 13 12 12 10 9 11 12 18 19 18 14 15
10 10 5 6 9 9 6 13 3 5 9 4 10 4 5 7 5 6 11 5 7 4 6 11 9 5 6 7 8 8 8 7 7 5 7 9 7 14 11 10 11 14 13 9 9 11 10 7 3 5 2 3 6 6 5 5 4 4 6 4 7 9 7 7 8 10 10 8 16 11 10 10 14 14 16 16 12 17 19 17 15 16 13 10 13 18 19 18
8 9 8 5 8 7 8 8 5 5 8 7 9 5 7 6 8 10 6 10 12 9 6 6 7 8 6 6 6 7 6 7 8 5 7 8 4 8 12 9 8 13 13 10 12 6 14 3 2 3 3 5 6 6 6 9 8 7 5 6 7 6 10 8 8 7 13 9 11 9 10 20 18 16 15 16 10 13 11 7 7 11 16 19 19 20 20 20
12 8 8 8 4 5 5 5 4 4 6 7 9 9 10 7 7 5 5 7 9 12 8 6 7 11 8 10 8 10 11 9 12 7 4 3 10 5 4 6 8 11 11 8 5 5 13 10 8 3 6 5 7 9 7 7 5 9 10 10 10 8 6 5 4 3 4 8 8 4 3 12 17 14 17 8 7 6 6 8 15 16 16 19 20 19 20 20
7 5 6 10 8 10 5 3 5 4 5 7 7 9 4 5 5 5 5 5 6 6 4 4 8 6 10 10 10 6 6 10 9 8 12 9 7 9 6 10 5 9 11 11 8 10 11 5 5 6 6 8 7 9 7 7 6 6 9 11 8 5 7 6 9 6 6 9 5 4 9 13 17 11 10 9 7 11 15 13 10 11 14 17 19 19 19 19
5 5 3 7 9 6 6 3 4 6 7 11 12 6 9 5 5 6 12 8 3 3 5 8 8 12 5 9 6 7 8 10 10 10 14 12 7 8 6 8 9 4 6 6 2 5 6 10 5 3 4 8 12 5 6 9 10 15 11 6 7 5 5 6 7 4 11 5 3 5 13 13 15 7 11 14 10 11 9 12 10 8 12 18 21 21 20 20
Wind_Speed
20 20 18 18 18 17 19 18 17 17 15 14 13 14 14 13 13 13 12 11 11 10 10 9 8 8 7 6 6 4 5 0 1 0 0 8 5 5 4 3 4 6 3 1 5 4 4 6 9 7 6 5 4 3 2 4 2 5 4 4 5 1 1 3 3 4 2 4 1 2 2 7 7 1 1 3 8 5 4 7 3 6 6 5 2 3 1 2
19 19 18 18 18 17 19 19 17 16 16 14 13 14 13 13 13 13 12 12 10 9 9 8 7 6 6 5 4 4 2 1 1 0 8 2 5 6 2 4 6 3 1 3 3 3 4 4 6 7 6 3 3 2 1 2 4 6 3 4 4 3 1 2 2 4 4 4 4 2 2 4 4 2 1 5 4 3 8 4 3 6 6 6 6 6 7 6
19 18 18 18 17 17 18 18 18 16 15 14 14 13 13 13 14 13 12 11 10 9 8 7 6 5 4 4 4 0 1 1 0 0 2 5 5 6 5 4 5 5 3 2 0 2 1 2 1 5 5 4 7 3 4 3 3 1 6 5 1 2 1 3 5 4 3 8 6 5 3 5 1 2 2 5 7 5 7 2 4 6 4 5 4 5 4 8
18 18 18 17 18 16 17 17 16 16 13 17 14 13 11 13 14 13 12 12 10 9 7 6 5 4 3 3 2 0 0 1 1 2 3 5 8 8 5 4 4 4 4 3 3 2 4 6 7 6 3 7 3 3 6 4 3 1 6 2 2 3 4 2 4 7 7 3 5 5 4 7 4 4 2 6 9 7 2 1 2 5 5 3 4 5 6 9
17 18 18 20 20 20 14 16 17 13 17 17 16 13 11 12 13 12 12 12 10 9 7 5 4 3 2 1 4 2 2 5 1 2 2 9 9 8 7 4 5 3 2 3 5 4 5 5 3 4 5 2 4 4 3 3 2 4 2 0 2 3 6 1 6 6 5 5 8 5 9 5 2 5 4 3 9 3 0 1 2 3 3 4 6 5 6 8
17 16 18 21 21 22 19 16 15 15 18 18 17 15 13 13 12 12 11 13 11 8 7 4 3 3 2 2 1 0 2 3 2 1 7 7 9 7 6 5 4 4 3 3 2 4 4 5 6 3 3 4 4 5 1 0 0 7 3 3 3 2 7 2 5 4 7 4 5 4 1 2 4 4 3 7 6 1 2 2 0 3 3 4 4 4 6 7
17 15 19 21 21 22 22 17 18 20 18 18 17 16 14 13 12 11 12 13 11 8 6 4 3 3 3 3 1 3 4 0 1 4 11 9 8 8 7 5 5 4 3 1 2 3 4 6 6 4 3 5 4 5 3 4 4 7 3 2 5 5 7 4 6 6 6 8 4 3 4 6 5 8 2 6 2 1 0 3 2 4 4 4 6 5 7 6
16 17 20 21 21 22 22 22 21 20 20 18 18 17 14 13 11 11 11 12 10 8 5 3 3 3 2 0 1 4 3 1 4 1 9 11 7 6 8 4 3 2 1 3 8 7 5 5 8 3 7 4 1 4 1 8 6 6 5 4 4 7 5 7 8 9 9 7 5 8 8 3 5 4 2 4 0 1 1 1 4 5 6 6 7 6 6 7
18 19 20 21 21 22 22 22 21 20 20 19 17 17 14 12 11 10 11 11 9 8 5 2 2 1 1 1 2 1 1 2 4 3 7 7 6 5 2 1 1 1 1 2 2 9 6 2 2 2 4 5 1 7 2 4 5 3 4 4 6 6 6 7 9 7 8 4 9 12 8 5 5 6 6 0 0 0 0 1 3 5 6 4 4 4 5 5
20 19 20 22 22 22 23 22 21 20 20 19 19 17 15 12 10 9 10 10 9 8 4 1 2 4 1 2 3 4 2 1 2 1 5 9 6 6 7 2 2 2 2 2 4 3 1 5 4 5 9 5 2 4 0 6 2 4 8 9 10 6 7 3 7 3 3 3 6 9 4 2 3 3 0 1 1 2 2 3 2 5 4 3 4 3 3 5
20 20 20 22 23 23 24 23 21 21 21 20 20 18 15 11 9 8 8 8 7 6 4 0 0 1 2 2 4 1 3 3 0 0 5 7 8 7 4 2 1 2 6 3 3 1 2 10 9 5 5 2 3 5 6 3 8 9 10 11 10 10 8 6 8 5 5 2 2 9 3 1 4 3 4 3 1 3 6 2 3 3 3 3 3 3 3 3
20 20 21 22 24 25 25 24 22 21 21 20 19 18 15 11 8 7 7 6 5 4 2 1 3 1 2 5 2 0 4 2 2 1 2 4 4 1 3 3 2 1 2 4 3 2 6 8 4 2 4 1 8 5 6 3 7 4 7 8 4 6 6 2 3 1 1 2 3 3 7 5 5 4 3 2 3 4 4 3 1 2 1 2 3 3 2 3
21 21 21 23 24 25 26 26 25 22 21 19 18 17 14 10 7 5 5 3 3 2 1 1 0 0 1 4 3 8 1 2 4 5 3 4 3 3 3 3 2 2 3 11 5 3 4 1 9 13 2 4 3 1 3 5 4 7 4 5 5 4 3 1 1 2 4 3 2 4 1 3 2 2 2 1 4 4 4 3 3 2 2 1 3 3 2 1
21 21 22 23 24 26 27 27 27 24 22 19 17 17 12 6 2 2 4 2 3 3 2 2 2 1 2 3 4 2 0 4 4 5 2 1 5 4 7 8 6 4 4 9 5 3 6 6 12 8 3 4 4 3 7 2 5 5 1 4 3 1 1 0 1 2 5 0 1 2 2 3 3 4 4 2 3 5 3 3 3 3 2 2 3 3 3 1
22 22 21 22 25 26 27 27 27 26 24 22 18 15 10 5 4 3 3 4 5 4 4 1 2 0 3 5 5 6 7 3 3 1 2 2 5 3 1 4 7 6 6 6 4 4 3 5 7 6 2 2 5 5 3 3 3 3 2 2 2 4 1 1 1 3 4 1 1 4 3 4 4 5 5 2 3 4 4 3 4 4 3 3 3 3 3 2
23 23 23 23 24 26 27 28 27 26 24 23 19 10 7 5 5 6 4 5 7 5 1 1 2 3 1 2 0 3 3 3 3 2 1 3 3 2 2 3 4 6 8 3 3 4 5 6 9 1 4 4 8 6 5 4 2 3 3 0 1 2 1 1 3 4 4 2 1 1 2 0 3 6 5 3 4 4 4 4 4 4 3 3 3 3 2 3
24 24 24 23 25 25 27 28 27 26 24 22 17 5 5 7 8 7 7 5 3 2 1 0 0 1 2 3 1 1 2 2 3 1 1 1 3 3 2 4 4 5 5 4 6 4 5 7 4 2 6 5 2 4 6 3 2 1 3 2 2 3 1 1 2 3 1 5 1 0 1 4 3 3 6 3 5 4 4 5 4 4 3 3 3 3 3 3
23 24 25 25 25 26 27 27 28 26 23 21 11 4 2 5 8 6 4 2 1 0 1 0 2 2 3 3 1 3 2 5 3 2 3 1 4 3 0 3 1 4 3 1 4 3 3 2 4 3 2 2 0 2 3 0 4 2 1 3 1 1 1 1 2 3 4 0 1 0 0 4 4 2 5 6 5 5 5 5 5 4 4 3 3 3 3 3
23 23 24 25 24 26 25 27 28 27 22 17 3 8 7 4 1 0 2 3 0 3 1 2 4 1 3 3 4 5 3 5 1 2 2 3 3 3 2 5 6 0 0 3 1 2 3 4 4 5 2 0 4 4 3 2 5 5 5 3 3 4 2 1 4 2 8 3 2 3 3 2 3 3 4 3 5 6 6 3 3 4 3 3 3 3 3 4
23 23 24 24 25 25 27 24 26 26 21 11 5 2 4 9 9 3 7 5 3 1 1 3 1 2 5 5 4 3 1 4 4 3 1 0 3 0 4 2 2 6 2 1 2 2 1 4 2 1 3 6 4 4 3 3 6 6 4 4 3 2 1 3 3 2 4 2 2 4 2 2 4 5 6 5 2 3 4 5 5 4 5 4 4 4 5 5
24 24 25 25 24 25 25 26 25 23 22 5 3 8 5 1 1 3 7 10 5 3 3 4 6 4 5 3 3 2 3 2 1 0 0 2 2 2 2 2 4 2 2 0 1 1 4 5 2 3 3 3 1 2 4 6 4 5 6 4 1 1 0 1 1 2 4 3 1 1 1 5 6 4 4 2 3 8 9 8 7 7 5 5 5 5 6 4
23 24 25 26 25 25 26 25 24 19 14 5 8 7 3 2 1 1 1 5 6 3 3 5 1 4 3 7 4 3 3 1 4 3 1 2 1 1 2 4 1 1 3 1 2 6 5 1 2 1 2 5 5 4 3 3 5 2 3 2 2 1 2 2 3 2 1 1 3 1 3 5 4 4 3 6 9 6 7 8 8 6 5 5 5 6 5 3
22 25 25 27 25 24 27 23 22 13 5 8 6 4 2 2 3 2 2 1 6 3 2 1 1 3 6 3 1 3 1 2 4 3 3 3 1 1 2 1 2 1 1 4 2 1 2 4 1 2 4 7 3 3 5 5 5 5 3 2 1 1 2 1 2 2 2 1 1 1 1 6 5 3 5 7 8 5 4 5 6 5 7 8 9 8 7 5
22 23 25 25 26 27 27 25 16 3 6 1 1 4 0 2 1 1 3 1 3 8 2 3 1 3 4 2 2 4 1 2 2 3 2 4 3 2 2 2 2 1 1 0 4 5 3 1 2 5 4 5 3 1 5 3 2 0 2 2 3 1 2 3 2 1 0 1 3 2 2 6 3 2 3 4 4 4 4 4 4 5 6 5 4 3 6 9
22 23 25 27 24 27 30 18 7 4 5 1 1 1 1 3 0 0 3 2 1 4 3 2 2 3 4 1 1 1 2 0 6 2 2 6 2 1 1 1 1 0 2 2 5 4 2 1 3 3 3 4 2 1 2 5 2 4 3 5 2 3 4 1 4 3 3 2 2 1 3 2 3 5 7 4 1 4 2 5 7 7 5 5 6 7 5 5
23 23 25 24 24 27 27 3 4 8 6 1 2 1 2 3 0 1 5 2 0 3 4 1 0 1 0 1 2 1 3 1 1 3 2 5 5 2 0 1 1 0 3 2 1 2 2 1 1 3 2 2 2 0 1 2 2 2 1 3 2 6 6 7 4 4 1 1 3 1 2 3 5 4 4 3 3 7 2 4 7 5 6 7 8 6 7 8
22 21 21 21 19 23 10 2 4 8 1 1 2 5 5 4 2 3 1 4 2 1 0 1 1 1 1 1 1 2 1 2 3 1 2 0 3 1 0 4 2 1 2 2 4 0 1 1 4 4 3 1 2 1 2 5 4 2 0 5 6 7 7 6 6 4 1 1 2 4 3 0 5 7 2 5 3 5 6 7 6 6 6 8 7 6 7 8
22 21 21 21 18 12 3 2 8 5 2 2 6 7 6 4 1 3 3 2 0 1 0 1 1 1 1 1 5 0 2 1 2 1 1 1 2 2 1 2 2 3 2 3 1 4 1 1 2 2 1 1 1 3 2 2 1 1 0 3 4 6 3 4 5 3 0 1 2 4 2 1 2 6 5 2 1 4 9 10 8 7 7 7 7 7 8 9
18 17 20 18 20 9 3 1 1 4 2 5 6 7 6 2 3 6 4 1 1 0 1 1 2 0 3 1 1 1 1 0 1 1 1 2 3 2 1 1 2 3 2 2 3 1 2 1 4 6 3 1 3 1 4 6 2 0 5 8 7 7 7 4 3 3 1 3 3 2 0 1 6 6 6 3 1 5 8 10 10 8 9 8 8 7 6 6
18 17 18 18 13 1 2 1 6 5 3 6 7 6 1 2 2 2 2 1 1 0 0 2 1 1 1 0 1 3 1 2 2 3 3 2 3 2 1 3 3 2 1 4 3 5 1 3 6 3 2 1 3 1 2 1 2 6 2 7 5 7 4 3 6 2 2 1 3 2 0 1 2 5 4 2 4 6 6 4 4 3 4 6 6 8 8 8
16 18 16 14 6 3 4 7 5 2 3 6 8 2 3 7 3 4 1 1 0 3 1 1 1 4 1 1 2 2 0 2 2 1 0 1 2 3 1 1 4 4 3 6 1 6 3 2 1 1 3 2 2 3 4 3 3 3 2 2 2 1 7 3 4 4 2 2 3 1 1 1 0 4 4 8 5 3 4 7 5 5 8 8 7 7 8 7
17 19 19 10 7 0 2 6 2 1 6 8 4 4 3 1 3 1 2 2 1 3 1 2 1 1 2 2 3 1 1 1 0 1 4 1 2 2 2 4 2 2 3 1 1 4 1 0 1 6 3 5 2 6 3 5 5 6 4 6 3 3 4 1 5 2 0 1 1 1 1 2 4 9 7 5 8 7 7 8 8 7 7 7 7 8 8 7
18 21 22 11 5 3 7 12 6 6 5 5 3 4 2 4 1 3 0 2 1 1 1 1 2 2 0 1 1 2 2 2 2 0 3 1 1 2 2 2 3 2 2 2 1 3 4 4 5 3 1 0 4 3 1 1 2 3 3 3 3 2 4 1 2 1 3 3 2 1 0 1 5 8 8 9 8 6 6 8 7 6 8 9 10 8 7 7
20 20 12 4 6 9 8 3 2 4 5 3 2 4 7 2 1 4 1 2 0 1 2 1 4 2 1 1 1 0 0 1 1 1 1 1 2 1 1 2 4 2 5 1 0 2 1 3 4 1 1 0 2 3 4 2 4 2 2 3 2 4 0 2 1 2 1 4 4 4 1 2 3 1 1 5 4 6 6 6 5 6 5 5 4 5 5 6
23 16 8 7 2 6 10 7 4 2 1 2 8 5 4 3 2 2 2 2 2 1 1 2 0 2 2 2 2 1 1 1 1 0 1 2 2 2 2 3 2 5 2 3 1 2 0 4 6 3 0 2 3 1 3 5 4 1 1 2 4 0 6 2 2 2 2 2 3 0 2 3 3 3 4 3 4 2 4 4 3 4 3 5 6 8 8 7
14 9 3 4 3 3 2 2 3 4 1 5 3 2 2 4 0 2 1 2 0 1 5 4 4 5 1 3 2 3 5 0 3 1 1 1 2 1 1 2 4 8 6 2 3 1 1 0 3 6 3 1 2 3 0 2 2 2 1 0 1 2 8 5 1 0 0 2 2 1 6 5 8 4 3 5 3 3 4 4 1 1 3 5 6 7 7 7
8 9 6 6 4 2 2 3 4 2 7 6 5 2 3 2 4 4 2 1 2 0 2 2 2 1 0 0 1 3 2 1 1 2 2 1 2 3 2 3 5 2 5 8 2 4 3 2 3 2 1 2 1 4 3 3 4 4 2 2 1 2 3 3 1 2 4 2 3 3 2 8 6 2 5 6 4 6 3 2 1 1 3 6 6 7 8 9
8 3 3 4 5 1 3 4 1 6 4 4 2 5 1 0 0 1 0 1 1 1 1 2 1 4 1 0 2 1 4 4 5 2 0 2 1 2 1 1 3 6 6 0 3 2 3 1 2 1 1 4 2 1 4 2 3 1 1 4 2 1 3 3 3 2 3 3 4 5 2 5 3 4 4 6 2 5 3 1 1 2 5 6 5 5 4 5
2 2 2 0 2 1 3 4 6 3 2 2 1 1 2 2 2 2 4 3 1 1 1 2 1 0 2 1 2 2 1 2 1 1 2 1 1 1 1 2 1 3 1 5 1 1 3 3 3 1 1 1 1 3 2 1 4 4 3 2 1 3 2 1 0 2 4 1 4 6 4 3 5 5 4 6 6 5 3 2 5 7 6 6 6 7 8 9
4 2 0 1 3 2 3 2 3 4 4 1 3 3 1 1 2 5 3 1 1 1 1 1 1 0 0 2 1 0 1 1 2 1 2 0 1 3 0 2 1 2 3 2 2 1 1 1 2 2 3 2 1 1 5 7 3 1 2 1 1 1 1 3 0 0 1 2 1 1 5 5 7 6 4 7 7 6 6 6 6 6 7 6 6 7 8 8
1 1 3 2 6 0 1 4 4 2 1 0 1 1 1 1 2 2 5 4 1 2 3 1 2 1 2 1 0 1 1 2 1 1 1 0 1 1 2 1 2 1 1 4 3 1 2 1 2 1 2 2 5 3 3 4 6 5 6 4 6 2 1 1 4 1 2 1 1 2 4 7 11 2 6 6 6 4 6 6 6 6 6 7 6 7 8 8
0 0 2 3 7 2 3 1 1 0 2 2 1 2 1 3 1 3 2 1 3 1 2 1 1 1 1 0 1 1 0 1 1 1 1 2 1 2 3 2 5 1 1 2 2 3 2 3 6 2 4 4 4 1 2 3 2 3 4 1 4 3 5 4 0 2 1 0 4 2 1 8 6 3 3 5 4 5 5 4 7 5 6 5 5 5 5 6
1 4 4 3 4 2 3 2 2 0 1 2 3 2 2 1 2 2 2 1 1 1 0 0 2 1 2 1 0 0 1 1 0 0 1 1 2 3 5 9 6 3 4 1 1 0 5 2 2 3 5 5 3 1 3 4 4 2 3 3 2 0 3 5 3 4 3 0 0 1 1 8 7 1 2 4 5 5 4 5 8 5 4 4 6 7 8 8
1 2 5 2 4 4 3 2 0 1 3 4 1 3 2 2 0 3 1 2 0 1 0 0 1 1 0 1 1 0 0 1 2 0 0 1 0 3 5 10 2 1 1 3 3 3 1 1 5 2 3 4 5 5 2 2 4 1 0 1 0 2 3 2 5 0 0 5 5 4 3 5 7 1 2 2 4 4 5 6 5 6 5 4 6 6 7 8
1 2 2 7 5 2 3 4 4 1 1 0 1 2 2 1 5 6 2 2 0 1 1 1 1 1 0 0 1 1 2 1 0 1 0 1 2 3 3 8 7 2 1 4 3 1 3 2 3 2 4 1 1 1 4 1 1 2 1 2 1 2 5 1 1 2 1 1 2 1 4 9 10 10 11 4 2 5 4 6 4 5 5 5 5 7 8 9
1 1 3 2 5 4 3 1 2 3 1 0 1 2 1 1 2 2 4 3 3 1 1 1 2 2 1 1 2 3 4 3 2 1 2 2 3 3 2 8 6 4 3 10 4 4 3 2 2 6 7 7 8 4 3 1 1 1 1 1 1 3 2 4 5 3 3 3 3 6 4 6 11 12 10 12 7 8 8 4 6 6 5 4 5 7 9 9
1 1 1 1 3 4 1 2 1 1 2 3 0 1 0 3 2 4 4 0 0 2 1 1 1 1 1 3 1 1 1 1 5 2 1 1 2 3 7 4 5 11 11 1 4 5 3 2 0 4 2 5 7 2 1 2 0 2 0 0 0 1 2 2 2 4 4 4 5 3 4 1 7 9 11 10 8 7 4 4 6 6 5 5 6 6 7 8
1 3 1 1 2 2 2 3 1 2 1 0 2 0 1 0 1 0 3 1 2 1 1 1 3 1 3 3 4 2 0 1 2 0 4 1 3 5 3 3 5 8 6 2 2 3 3 2 1 0 0 2 3 2 0 0 1 1 3 2 1 2 2 2 4 5 6 2 8 3 4 2 6 7 10 10 7 6 6 5 5 5 1 3 5 8 9 10
1 2 2 1 1 3 3 1 2 2 2 2 1 0 1 1 3 4 2 2 3 1 1 1 2 2 1 3 3 3 3 3 1 1 1 2 1 3 3 3 0 6 7 4 5 1 4 1 0 0 0 1 2 3 3 0 2 1 2 4 5 4 5 4 4 2 7 5 5 2 3 7 9 8 9 10 6 5 4 3 3 1 3 5 6 7 9 10
2 2 1 2 2 1 2 1 2 2 3 3 3 4 3 3 3 1 1 3 0 1 1 2 2 2 1 5 4 4 7 4 5 3 2 1 1 0 0 2 3 5 5 3 1 2 2 1 3 0 1 1 3 6 1 2 1 2 5 4 5 3 4 3 2 1 2 5 5 2 2 6 7 5 6 5 5 4 4 4 4 3 2 5 6 7 8 10
1 1 1 2 1 2 1 1 2 2 1 1 2 3 1 3 3 3 1 3 2 2 1 3 4 2 1 3 3 2 4 6 6 4 8 5 1 4 2 3 3 3 6 4 3 4 4 0 1 2 0 2 1 5 3 2 1 1 5 5 2 0 0 1 1 3 2 4 2 2 5 6 9 3 5 5 4 5 5 5 3 3 3 4 6 7 9 10
0 2 1 1 1 1 2 1 2 4 2 4 4 3 3 2 2 0 0 1 2 2 2 5 5 5 1 4 4 4 5 6 5 4 8 6 1 1 1 1 4 0 1 1 0 1 1 3 1 1 1 2 2 0 2 3 5 8 5 2 4 3 1 2 3 2 5 1 1 1 7 7 6 3 6 9 7 7 5 4 3 3 4 6 8 9 9 9
Wind_Direction
340 339 337 338 337 337 341 341 339 338 333 330 334 334 324 321 318 312 312 311 309 306 305 306 308 313 313 313 318 358 325 220 39 49 91 241 205 218 153 84 84 106 140 54 16 39 358 25 19 352 40 54 322 41 304 46 13 55 59 113 59 175 93 200 160 190 148 113 152 65 87 113 99 52 108 57 44 73 46 52 16 50 57 75 80 94 134 301
337 336 335 336 337 337 339 339 339 336 334 328 334 333 324 318 318 315 316 314 309 302 301 307 309 311 312 316 328 340 0 75 58 12 226 182 125 141 154 76 82 75 120 35 52 50 59 19 39 38 44 45 326 13 21 1 46 78 111 71 138 204 304 139 165 129 115 125 130 98 52 93 117 127 29 80 40 41 61 32 29 59 39 41 53 63 45 46
337 333 334 334 334 335 337 338 337 335 333 331 332 330 326 319 318 318 317 313 309 305 300 306 315 315 316 314 320 315 319 47 50 261 291 233 162 106 85 82 80 72 95 127 223 108 76 170 142 69 27 88 8 37 40 347 64 16 106 86 357 216 23 59 116 133 73 133 115 94 39 73 354 73 350 93 92 58 74 75 41 48 44 33 33 69 96 72
336 333 333 336 335 332 334 334 334 336 332 337 331 330 321 321 317 320 318 311 308 304 308 317 317 320 330 310 294 68 166 60 31 267 268 131 116 113 111 104 112 104 106 78 146 106 105 89 61 72 64 61 326 27 47 327 75 316 68 122 146 176 95 2 79 100 106 102 107 87 88 72 44 61 82 137 82 49 350 292 150 110 100 76 53 58 58 67
335 335 335 341 341 340 327 333 334 327 340 335 333 330 325 320 316 319 315 308 307 310 317 325 332 326 322 349 328 172 45 54 282 238 244 119 119 126 136 119 83 66 87 114 76 55 69 76 83 41 74 50 11 21 15 354 79 89 94 166 108 115 73 89 102 94 99 89 94 95 89 117 131 44 43 78 104 122 180 359 109 117 122 96 84 65 67 70
336 332 336 340 341 341 338 330 328 335 339 336 330 330 329 322 318 316 314 305 308 311 319 327 320 328 343 98 53 209 81 87 251 291 72 131 118 119 109 98 83 70 62 38 103 95 75 19 60 30 26 57 9 79 319 19 296 91 4 57 55 81 117 135 95 88 100 96 85 85 89 100 75 89 45 67 74 59 336 298 200 92 91 96 87 83 68 75
338 334 338 340 340 340 341 334 337 338 337 334 329 327 327 323 314 314 311 304 305 307 323 330 332 307 55 88 146 79 95 269 311 266 94 117 114 107 107 90 63 56 62 64 45 78 78 88 74 79 89 74 31 69 26 65 44 86 99 68 50 94 97 103 91 83 73 86 78 99 95 80 104 80 0 66 24 95 269 302 123 93 82 85 77 77 92 89
338 339 340 339 339 339 339 340 339 337 335 333 327 325 326 321 315 310 306 300 303 304 315 334 11 348 350 191 62 358 26 289 262 101 131 106 91 100 98 65 75 63 70 148 123 102 100 78 110 140 57 94 206 88 344 71 32 86 85 90 96 69 81 85 91 87 87 81 101 80 75 61 68 108 106 44 0 327 54 276 84 89 87 84 97 99 99 94
339 341 340 339 338 338 339 339 338 337 334 330 328 322 327 321 315 309 300 294 296 296 306 323 6 349 246 61 96 42 318 242 248 186 120 89 102 80 96 1 73 105 68 78 114 140 98 224 105 156 152 104 15 96 353 90 36 32 112 99 87 92 86 96 83 88 97 91 98 86 85 82 106 101 56 232 296 221 314 36 90 95 86 87 100 111 112 109
340 341 340 338 338 338 338 339 338 336 333 331 328 325 325 324 315 303 294 287 285 288 305 334 185 293 11 75 32 80 269 224 345 120 118 109 89 61 47 131 130 135 104 107 99 108 112 199 130 121 114 72 86 44 304 74 153 90 92 93 95 96 93 46 103 75 75 79 117 108 104 75 331 94 251 288 266 170 137 80 72 105 104 108 111 108 111 114
339 341 340 338 339 338 338 338 339 337 335 333 330 326 325 322 316 295 282 277 282 287 288 131 185 231 33 71 85 74 219 83 212 180 123 100 68 44 346 324 171 68 105 105 167 176 143 130 138 130 46 166 98 27 53 130 110 88 98 73 63 68 61 87 85 105 102 58 95 105 97 347 344 62 160 196 206 167 119 106 99 96 110 122 126 113 109 104
340 340 341 339 339 339 338 338 340 340 336 333 329 326 324 319 310 293 267 268 262 257 257 166 113 129 78 66 121 190 -0 270 110 72 24 75 64 132 234 220 141 159 140 98 74 57 123 124 91 76 151 174 79 109 64 95 85 97 89 87 62 67 71 31 93 143 96 121 201 115 73 19 350 133 197 182 151 124 121 144 155 99 111 127 129 110 107 127
340 341 341 341 340 340 339 339 339 340 337 334 332 328 325 323 298 263 267 264 236 185 140 82 274 77 83 21 232 239 288 108 105 95 50 43 93 65 75 66 78 84 145 121 124 80 74 94 103 83 82 88 136 97 159 84 97 90 37 94 72 50 55 330 37 84 106 174 129 6 43 283 295 266 266 199 125 107 115 160 175 154 139 138 144 139 117 94
340 340 342 342 341 340 340 339 339 339 339 338 337 334 330 323 273 241 218 192 116 145 122 29 35 70 75 248 272 262 257 137 108 68 64 357 69 357 21 7 13 39 51 85 81 91 68 87 93 115 99 92 107 126 84 11 19 101 192 60 95 63 351 277 138 205 117 154 114 59 139 271 269 279 263 239 154 137 159 194 191 172 169 164 167 152 154 172
339 337 338 342 342 340 340 339 339 338 338 340 343 335 336 356 73 149 155 103 99 113 94 32 29 48 41 281 254 284 155 117 67 287 171 105 98 53 11 5 44 58 75 78 96 74 78 55 64 45 49 319 94 76 33 33 14 30 41 342 344 94 250 295 192 184 125 209 109 59 78 225 250 247 247 190 165 146 174 207 205 194 193 184 171 168 153 162
343 339 338 341 341 341 339 339 338 338 337 338 343 332 356 77 93 105 79 90 119 113 158 24 4 95 98 17 105 128 46 53 324 301 244 111 98 127 177 124 83 48 70 32 60 64 35 78 65 122 102 38 62 90 60 48 343 1 100 224 33 60 168 23 206 186 174 104 58 41 196 325 285 234 239 196 162 169 183 220 222 215 214 187 174 174 155 119
345 343 339 340 341 340 340 339 338 337 336 337 340 3 39 81 84 78 79 96 116 163 0 136 314 55 48 245 253 42 323 280 262 49 109 47 105 134 138 59 51 71 58 74 36 53 4 60 310 62 29 103 130 98 76 24 336 329 32 124 213 134 158 202 309 214 130 125 214 81 134 227 251 235 199 195 178 171 194 220 234 227 222 199 165 164 170 171
345 344 342 339 340 340 340 338 337 335 335 336 336 302 107 111 126 102 69 51 160 169 260 221 120 46 316 349 9 291 291 301 319 184 73 324 112 91 65 97 53 76 60 70 8 64 343 58 29 164 15 4 16 39 89 313 187 210 54 72 35 45 142 211 170 233 121 0 158 132 238 277 276 288 212 193 186 178 212 213 221 219 215 200 176 179 187 189
344 345 341 341 339 339 339 338 335 333 333 330 295 58 114 145 289 335 62 14 30 348 27 339 29 64 202 261 298 292 269 228 157 99 184 98 46 92 56 85 76 171 213 66 302 83 351 65 35 42 116 265 222 163 168 209 144 170 163 159 142 121 231 229 244 256 161 148 161 173 206 251 266 271 244 229 185 192 222 222 233 231 218 198 185 190 195 204
342 344 342 339 339 337 336 338 335 330 337 345 7 20 13 16 5 337 343 29 72 165 259 238 109 260 294 284 276 251 254 56 98 318 83 165 106 314 20 72 16 58 75 79 303 36 126 96 122 181 221 219 243 193 190 183 140 119 104 104 153 159 287 267 273 241 150 92 230 209 228 257 256 227 223 214 190 219 231 232 230 224 211 205 194 197 206 209
342 344 343 338 336 335 334 335 334 329 330 349 315 60 58 301 53 325 322 282 255 244 212 240 194 203 239 284 291 350 42 317 89 230 234 121 91 163 288 25 25 35 341 283 187 313 70 60 337 224 226 207 178 110 116 86 62 127 110 105 114 170 46 240 203 149 181 140 289 189 201 255 246 251 242 202 178 223 218 224 232 226 212 209 198 202 205 212
342 343 344 340 335 333 331 332 331 326 321 318 52 78 119 103 214 190 84 331 324 245 213 254 325 287 288 247 232 145 103 36 324 305 294 127 318 102 312 89 80 142 323 356 20 20 30 112 267 279 124 108 66 82 59 95 111 36 119 125 91 277 233 299 42 103 156 61 273 191 195 259 264 240 232 197 205 226 218 213 224 212 215 213 210 207 199 172
342 342 345 340 336 330 329 329 325 322 8 26 54 78 82 318 307 270 153 175 275 268 262 316 258 266 292 250 241 122 97 184 253 279 214 105 352 232 172 73 52 131 22 32 134 51 31 303 264 151 129 85 35 51 85 73 64 104 91 81 203 244 98 297 328 94 32 112 269 171 235 287 291 269 233 218 204 230 213 214 231 195 209 208 209 201 187 189
341 341 344 342 335 332 322 329 313 2 29 357 77 92 224 323 286 54 109 217 306 312 205 233 173 242 265 312 212 129 149 271 106 279 234 120 163 184 88 144 94 43 45 20 127 132 183 210 119 112 77 108 121 27 89 68 66 309 137 133 144 170 215 158 221 152 339 13 111 93 8 323 313 270 281 263 220 242 236 216 229 227 216 214 221 190 186 188
340 341 343 342 338 330 322 326 45 350 299 102 208 181 54 348 313 140 121 344 10 294 250 317 142 252 234 336 42 147 247 7 220 226 211 133 156 53 340 187 110 268 175 168 89 62 355 274 159 75 75 68 99 124 192 129 27 325 233 176 202 167 131 89 114 98 21 337 348 101 13 312 303 297 253 270 17 233 234 209 234 224 211 193 204 204 188 195
339 339 341 343 338 333 317 32 346 330 346 81 101 334 335 332 4 196 99 76 323 267 348 221 166 330 119 293 30 162 57 295 240 233 173 188 149 151 99 18 116 5 155 181 164 167 174 351 103 153 101 69 60 233 215 124 138 76 315 161 159 134 124 126 122 78 28 71 299 64 124 273 326 302 269 294 253 253 291 235 238 223 211 205 211 196 187 184
337 335 339 342 341 340 5 335 306 317 38 323 347 335 342 319 309 139 27 2 69 255 228 251 49 271 273 282 118 51 46 268 304 94 112 238 152 313 150 279 1 38 139 149 42 62 108 35 66 52 71 58 40 350 220 133 90 349 276 116 101 117 135 155 125 116 176 243 297 44 99 125 320 295 296 290 257 275 287 262 248 234 213 211 210 196 187 188
333 332 336 338 337 341 199 324 350 352 232 303 339 331 328 318 97 53 80 75 251 310 340 301 227 317 78 322 71 135 218 259 19 282 58 289 99 6 85 232 206 193 168 75 93 255 135 94 94 76 69 82 230 212 192 130 102 246 284 120 107 123 129 109 105 94 64 82 318 322 348 6 270 266 322 12 313 292 265 258 250 229 220 214 208 198 193 190
329 329 333 335 331 324 161 202 6 248 253 316 315 320 320 46 106 101 109 101 258 239 315 64 314 40 333 344 34 25 331 352 144 255 308 66 26 145 62 283 151 135 49 122 176 281 263 176 203 143 131 258 236 276 175 137 71 268 125 83 78 75 65 85 93 81 343 54 296 278 280 151 288 279 335 339 280 276 258 251 244 224 213 206 203 201 191 187
325 328 329 334 329 90 326 191 211 242 317 318 313 308 33 53 33 42 22 151 0 338 253 255 44 253 51 80 316 2 200 300 200 317 34 136 325 43 101 134 121 69 17 2 92 198 274 316 158 112 207 204 133 88 151 81 132 139 85 71 31 41 46 42 60 97 60 18 264 236 293 128 303 273 229 129 223 204 248 288 272 214 210 213 204 191 188 186
324 323 323 334 318 308 324 311 257 211 272 317 316 342 74 42 114 97 121 229 41 264 1 352 278 6 45 143 273 307 343 333 322 35 333 340 340 39 26 323 52 51 42 11 37 338 358 350 133 220 119 103 105 76 21 48 55 92 43 85 49 340 11 30 345 37 89 292 260 281 180 125 180 292 286 241 263 235 210 245 247 228 211 206 195 193 189 184
322 318 314 320 256 355 178 256 185 14 349 323 2 56 70 270 8 96 203 327 83 285 81 287 302 97 1 329 106 290 167 336 285 137 182 164 141 155 173 164 161 37 343 347 225 343 332 237 306 319 206 130 66 73 354 23 17 65 71 33 73 281 33 313 10 1 155 152 76 6 117 37 226 224 242 269 253 254 224 225 227 217 217 204 198 192 184 173
322 314 309 286 241 190 236 254 330 334 343 337 62 47 66 98 196 264 320 310 251 185 299 152 252 328 263 84 300 300 291 188 302 315 108 0 180 277 247 181 188 163 283 265 33 27 277 291 345 298 339 140 108 105 326 25 357 85 109 124 55 36 31 4 283 228 312 300 256 356 352 243 258 285 235 240 256 241 245 238 234 212 205 199 196 180 172 171
317 313 316 247 211 228 253 261 266 11 342 27 73 43 56 76 237 200 315 232 296 334 317 336 331 3 73 149 270 237 343 276 145 260 90 234 51 261 323 345 127 43 79 165 263 192 28 354 297 118 267 289 137 151 180 173 150 199 141 128 176 145 124 353 247 2 265 234 276 288 24 239 24 252 195 214 266 296 275 259 234 222 210 194 160 151 156 160
312 299 268 291 264 250 236 246 256 209 111 60 53 85 128 233 221 173 242 307 283 309 257 12 217 61 348 9 303 255 156 296 36 82 10 113 251 165 204 201 277 105 135 109 275 69 165 207 256 230 125 125 101 190 126 95 60 307 154 90 69 282 153 83 208 165 251 323 348 250 219 188 191 248 287 276 294 318 323 301 211 206 141 133 145 164 175 170
319 320 298 276 310 272 185 181 147 142 83 54 74 62 162 190 121 181 74 197 5 346 305 1 67 57 323 331 316 39 314 171 309 82 337 62 205 259 235 199 177 188 133 160 194 153 7 352 295 322 80 89 167 152 351 116 357 254 112 180 221 149 102 98 73 72 46 56 262 225 316 306 291 334 319 331 5 326 357 13 49 163 148 149 170 176 174 172
339 330 6 321 301 244 149 132 137 90 61 91 93 225 206 276 197 158 255 37 272 13 64 93 326 98 330 330 274 319 302 53 333 76 267 299 325 218 264 272 181 179 200 132 278 186 136 237 294 33 308 357 225 112 84 28 138 79 33 239 171 120 127 123 254 344 61 73 291 40 297 307 22 331 327 345 348 306 2 2 30 138 146 178 188 180 181 178
329 324 249 276 262 354 143 153 113 43 80 87 159 231 230 173 99 165 251 12 16 5 89 100 281 99 252 102 337 299 312 90 297 46 210 342 271 203 180 272 228 188 208 36 138 271 112 357 305 331 195 276 349 74 23 347 10 221 213 188 60 327 356 322 83 11 357 358 306 319 278 252 177 269 340 319 314 294 298 315 137 191 196 201 188 180 157 136
288 13 6 251 345 88 186 129 67 76 58 67 244 10 253 241 235 213 209 146 168 129 100 237 140 298 130 158 245 312 312 61 304 75 87 306 92 183 292 195 337 82 16 146 57 167 51 147 291 306 99 305 348 70 257 286 344 31 91 54 338 105 159 26 218 170 116 280 33 300 33 303 215 221 209 264 249 255 260 269 234 222 213 204 190 176 170 169
8 33 301 266 348 346 160 83 57 45 68 166 220 216 232 281 261 265 255 170 275 126 234 155 241 91 274 225 143 8 316 94 127 255 105 262 259 278 47 350 240 341 95 93 123 127 87 103 169 282 289 49 282 164 217 163 138 357 38 325 351 29 207 107 99 91 247 174 169 223 339 287 272 211 187 244 244 234 198 225 231 228 220 206 192 182 179 175
312 106 266 284 351 285 75 41 47 54 111 250 159 236 327 251 326 284 290 210 221 262 168 178 162 202 207 69 296 246 305 53 45 68 132 292 143 331 269 335 311 247 90 47 82 55 88 62 168 315 47 223 232 246 205 178 170 165 160 204 177 121 146 25 285 4 67 78 219 106 278 267 273 174 213 229 253 240 235 216 232 231 221 202 191 183 178 175
57 315 271 314 349 65 85 45 27 269 98 157 217 170 305 292 354 277 322 350 192 256 11 122 198 144 135 221 197 272 131 55 11 71 310 120 251 144 272 30 254 216 119 133 159 217 149 143 95 138 195 208 229 293 257 193 120 165 134 232 144 111 101 102 13 287 21 0 106 151 116 275 246 229 210 237 265 261 254 227 246 238 223 209 185 168 168 167
79 218 248 318 341 70 72 57 306 34 180 232 283 273 229 293 218 269 347 308 328 150 21 111 197 116 235 187 193 266 138 73 278 337 198 248 254 218 269 321 257 63 87 16 51 228 90 60 47 310 312 298 321 284 53 68 95 71 35 80 98 185 178 168 174 182 131 117 40 5 225 253 288 323 267 256 260 268 266 223 235 246 228 201 168 162 160 149
205 256 314 306 26 79 92 216 255 276 287 316 38 267 260 218 13 323 262 288 172 346 162 235 342 165 150 150 101 0 293 97 269 91 328 225 321 155 356 360 308 81 74 207 126 219 74 305 116 52 1 340 342 345 7 340 52 79 4 298 125 78 77 148 109 194 277 219 167 120 258 280 272 324 284 259 296 285 267 252 223 239 242 196 172 164 155 146
281 277 239 301 350 70 193 186 142 172 260 264 332 330 328 315 204 214 209 276 273 197 98 254 195 162 78 69 82 95 26 133 176 292 151 201 241 318 335 20 345 86 76 196 175 84 90 180 97 134 143 144 222 289 267 268 224 281 249 344 103 139 128 87 315 23 52 280 119 165 253 255 282 310 317 323 333 303 275 275 275 237 228 196 168 164 156 154
264 206 299 332 4 37 79 97 113 138 134 198 345 271 154 265 314 285 164 270 210 241 176 227 10 84 45 57 35 19 359 10 100 268 43 314 307 314 310 345 30 14 10 83 64 80 125 110 97 157 150 185 203 208 250 154 48 58 258 33 320 67 70 93 108 88 233 203 188 235 195 297 311 308 316 311 329 305 307 304 270 254 236 205 169 167 165 161
295 183 182 186 345 43 113 15 110 87 230 165 149 227 258 207 261 325 149 269 241 204 41 41 215 145 270 85 144 75 316 345 354 71 340 291 263 261 306 325 320 8 346 103 20 87 69 63 296 131 183 196 180 181 170 169 194 235 320 303 351 169 161 118 148 243 171 80 312 263 196 164 277 298 300 302 308 300 276 255 271 271 245 200 174 153 142 143
189 256 114 199 136 237 145 288 151 126 99 119 249 311 239 155 27 274 326 216 341 9 125 335 34 10 182 170 135 111 355 52 4 14 324 230 332 329 3 359 43 329 355 17 359 111 130 119 232 105 278 260 207 208 8 46 202 215 212 255 293 143 133 154 232 211 147 190 216 248 171 215 265 272 282 283 272 267 276 263 248 263 240 133 139 154 161 163
162 274 241 300 178 236 150 181 154 153 177 196 276 174 291 202 255 215 172 324 22 329 65 182 293 278 206 177 116 151 172 89 297 307 200 300 33 332 8 337 145 19 31 17 16 90 91 67 180 72 278 339 333 359 7 23 316 329 267 228 244 214 234 213 256 205 184 219 219 206 191 247 252 262 272 279 287 251 264 276 295 247 176 165 164 170 171 172
229 137 281 351 79 144 187 113 132 115 201 225 188 247 188 189 226 294 227 157 14 304 40 99 240 303 219 145 118 136 208 173 173 172 238 146 335 109 230 193 283 329 35 31 0 337 108 258 148 86 83 285 327 347 41 25 61 287 282 280 273 277 286 226 204 196 201 289 272 263 282 290 267 226 259 286 307 299 291 281 256 251 159 167 178 185 184 183
232 180 155 129 155 260 90 106 131 143 134 316 173 270 151 220 219 208 248 171 169 203 230 200 196 143 11 99 98 155 186 170 163 176 175 148 120 221 122 285 147 327 358 360 17 323 63 349 64 67 78 310 348 18 324 355 248 231 306 312 308 110 319 183 241 209 150 253 280 357 323 275 274 283 267 282 326 340 315 309 298 263 205 179 190 200 193 187
224 290 107 103 127 283 173 107 79 92 257 219 178 230 178 239 214 142 95 245 185 220 193 162 184 106 20 88 136 176 198 174 174 187 174 195 163 202 215 137 163 47 312 59 227 26 80 124 113 58 110 259 254 70 341 9 26 358 310 247 197 231 254 294 289 210 209 145 49 291 241 225 245 4 357 315 340 320 311 279 272 267 221 195 204 209 206 196